Wind_Speed
15 13 11 9 6 9 15 11 9 5 5 3 3 5 8 9 9 7 6 17 12 12 11 14 15 14 10 8 7 10 10 8 4 4 5 5 4 3 2 2 2 1 1 3 3 3 4 5 5
16 14 11 5 11 19 18 10 9 7 8 9 11 9 7 5 5 8 10 14 11 10 11 13 14 14 10 8 9 10 10 8 5 5 5 6 5 4 2 2 3 3 4 4 4 5 6 6 5
16 13 8 12 19 22 18 6 3 5 8 3 3 4 8 5 10 9 16 11 12 11 11 14 15 14 11 7 9 10 10 8 6 6 6 6 7 6 5 5 5 6 6 6 5 5 6 6 6
13 11 12 16 23 19 15 9 5 10 9 11 8 10 10 7 8 12 17 13 11 14 14 14 17 16 11 7 11 10 9 8 6 6 8 8 8 7 6 7 7 7 8 7 6 6 6 6 6
10 8 17 22 22 19 19 18 18 19 18 16 15 15 13 13 18 19 16 15 13 15 16 17 18 16 11 9 11 11 9 7 6 7 8 8 9 8 8 9 9 9 8 8 8 7 7 7 6
9 10 17 22 19 16 14 16 16 18 16 15 16 17 13 10 18 18 19 17 17 18 19 20 21 19 13 13 13 12 9 8 7 8 8 8 9 10 10 10 10 9 9 9 8 8 8 7 7
11 14 23 23 22 20 19 19 17 17 17 14 15 13 12 12 23 24 16 20 21 22 23 23 23 21 17 17 16 13 11 9 8 9 10 10 11 12 12 12 12 10 11 10 9 9 9 8 8
12 15 20 20 22 21 16 17 14 15 17 16 11 11 7 18 26 26 24 22 22 26 28 27 27 25 21 20 19 16 13 11 10 9 11 12 13 13 14 14 13 12 12 12 11 10 10 9 9
17 14 19 19 20 19 14 15 14 16 21 20 17 17 17 25 34 23 20 22 25 28 31 31 31 29 25 23 21 18 16 13 11 10 12 13 14 15 15 16 14 14 14 14 13 12 11 10 9
13 17 18 18 19 17 18 18 23 27 27 27 23 22 23 28 30 29 29 27 28 28 34 36 36 35 29 27 24 21 19 15 12 11 12 12 13 14 15 15 16 16 16 16 15 14 12 10 10
12 18 17 19 18 19 25 28 26 30 36 29 30 33 37 38 37 33 31 32 30 31 25 38 40 39 34 31 27 24 22 18 15 13 12 13 14 14 14 15 17 17 17 17 16 15 13 12 12
18 16 16 19 21 27 33 33 33 30 37 39 41 42 45 45 41 34 36 34 34 32 31 24 41 42 39 35 32 28 25 21 18 16 15 14 15 15 16 17 16 17 16 16 16 15 15 14 14
18 16 16 23 26 30 29 29 31 32 32 30 37 39 41 43 40 32 32 37 37 38 34 35 40 46 44 40 37 33 29 26 21 19 17 16 15 16 18 18 18 16 17 17 17 17 16 15 15
14 20 22 24 23 22 24 24 24 26 25 27 29 30 32 33 37 34 31 40 38 41 41 38 40 50 49 47 43 38 34 30 25 22 19 18 17 17 17 18 17 17 17 17 17 17 17 17 17
23 21 19 13 11 18 20 23 21 18 24 28 28 29 30 33 33 35 34 35 38 43 47 44 39 47 51 53 48 45 40 34 29 25 22 20 19 19 18 18 17 18 17 17 18 18 17 18 18
14 13 5 11 19 19 14 30 19 24 25 29 30 32 33 33 35 35 36 35 32 36 46 50 46 42 51 55 53 49 45 39 34 29 25 23 22 21 20 18 16 16 17 17 18 18 18 17 17
12 11 19 18 18 17 16 36 23 24 24 26 27 28 30 32 31 32 36 35 35 33 34 49 48 45 48 52 57 55 50 44 38 34 31 28 26 24 23 20 17 15 15 16 17 17 17 16 15
15 20 19 18 17 24 24 27 28 24 21 18 16 19 21 22 24 27 27 32 33 33 35 37 47 46 45 53 58 59 56 50 43 39 36 33 29 27 25 22 20 18 16 15 16 14 16 15 14
15 19 21 18 20 17 20 29 26 24 11 11 16 22 28 31 35 35 32 26 29 32 35 37 39 40 50 50 53 62 62 55 46 43 41 36 33 30 28 26 23 21 18 16 15 15 16 15 15
16 20 22 20 13 23 24 27 22 13 11 11 20 27 42 45 44 40 38 34 28 32 36 37 46 53 54 47 49 60 64 57 48 46 44 40 37 35 32 29 26 23 21 20 18 17 17 16 17
17 20 23 22 22 23 18 25 7 8 7 16 22 35 44 44 43 39 32 35 43 45 50 53 54 58 54 44 41 54 63 60 55 51 49 42 38 41 36 31 29 26 25 23 21 21 19 20 20
19 15 17 23 21 22 19 22 24 6 10 23 36 43 43 42 37 33 29 31 33 39 44 44 46 52 49 55 49 54 61 66 63 53 46 42 41 42 39 34 31 28 28 27 24 24 22 24 23
12 14 20 23 25 25 25 17 2 9 18 35 41 43 43 42 37 30 29 30 29 33 37 37 37 48 54 51 54 54 56 65 62 52 48 45 41 41 40 34 31 29 30 29 28 27 26 25 26
14 17 23 21 18 16 22 8 7 13 24 38 40 41 42 42 40 32 31 31 30 32 35 33 33 44 51 51 52 57 54 56 60 56 52 45 40 40 38 34 31 29 28 27 27 27 27 27 26
8 14 12 10 7 15 11 14 3 14 24 36 38 39 39 39 37 35 30 32 29 25 28 29 28 31 46 54 56 50 52 53 56 59 52 45 38 37 34 35 34 33 31 31 30 31 30 29 28
12 12 10 8 11 20 31 7 3 11 24 29 33 34 36 34 31 30 31 25 15 17 21 25 25 25 37 48 55 54 50 55 60 68 27 44 40 39 32 31 30 33 32 32 33 34 33 32 31
1 12 9 16 28 22 11 2 3 14 23 30 31 30 33 31 30 26 18 8 4 8 15 21 25 23 32 40 48 49 50 52 65 43 53 39 32 35 38 34 38 38 37 35 34 38 40 36 32
13 10 9 9 5 9 6 5 6 23 28 32 31 28 29 29 27 22 11 7 6 5 16 21 22 33 24 39 40 38 44 50 61 39 43 35 40 36 37 40 41 40 39 39 39 41 44 45 36
8 9 9 15 17 6 9 4 10 19 25 30 28 26 26 26 26 23 16 17 12 11 19 14 13 20 27 21 20 32 28 34 36 32 38 33 40 42 41 38 34 37 41 42 42 42 42 46 41
3 5 11 10 11 14 9 3 9 15 21 25 23 22 21 22 23 21 18 18 17 10 9 8 13 16 19 15 13 15 17 22 12 31 33 42 44 43 38 35 37 39 38 40 43 42 41 43 41
Wind_Direction
276 280 288 297 262 252 262 260 233 269 304 243 271 296 276 285 267 294 321 275 271 279 198 224 236 231 237 260 287 302 291 280 239 206 196 206 226 251 266 284 291 249 226 202 190 201 214 209 212
277 279 286 258 256 258 259 242 251 260 256 283 300 303 298 260 282 277 299 244 258 255 205 204 231 228 232 252 286 292 281 272 249 213 206 212 223 235 227 254 262 242 219 208 204 206 210 207 204
271 270 264 260 252 258 272 325 246 277 272 314 327 304 296 255 259 295 266 250 246 236 198 200 219 223 226 249 275 273 270 270 255 227 221 217 224 224 219 227 237 231 211 214 205 210 203 205 200
277 283 258 244 256 260 265 267 299 284 291 303 289 294 293 273 284 280 250 244 236 229 209 200 208 216 220 245 260 255 255 263 257 238 233 226 226 221 218 222 225 223 214 215 206 205 203 195 201
274 248 253 258 266 268 260 263 276 277 276 278 276 278 271 279 272 264 254 242 232 228 212 201 207 214 220 237 245 242 245 251 251 243 233 231 223 220 216 217 219 217 217 214 206 205 208 207 212
257 267 260 265 272 275 271 267 281 277 276 281 284 283 265 291 269 270 252 245 234 231 214 206 208 212 220 227 231 235 240 240 235 238 234 224 218 214 216 215 214 219 217 214 207 214 223 220 221
263 251 267 276 280 279 275 281 277 278 285 284 276 274 264 243 269 257 244 243 240 234 218 215 214 214 221 223 225 227 231 235 232 230 227 218 216 215 211 214 214 215 217 218 212 221 224 226 242
261 265 270 271 281 281 278 279 278 285 275 273 292 269 247 261 270 252 256 239 240 236 226 220 216 219 222 224 227 221 221 225 227 230 227 218 213 216 215 214 215 217 218 221 220 224 222 235 251
288 267 271 280 287 289 275 281 267 282 288 288 292 272 272 271 255 256 248 235 236 236 233 228 223 220 225 225 227 222 220 223 223 226 233 226 218 219 219 217 215 220 221 222 224 223 228 232 247
269 268 273 282 283 279 279 283 287 292 287 284 282 275 279 274 274 260 252 247 241 236 235 233 229 224 224 228 228 223 219 222 225 225 232 236 225 216 220 223 218 219 222 223 225 225 228 235 240
271 269 274 274 279 278 283 285 288 286 284 287 284 276 271 276 281 269 259 261 251 240 236 232 232 226 225 227 230 228 222 220 221 221 228 230 225 219 222 226 226 223 224 226 227 229 230 236 244
280 280 281 285 285 284 289 292 288 285 287 287 285 281 279 279 280 279 270 255 253 246 235 247 229 228 227 228 230 230 228 222 221 220 224 228 226 215 221 224 229 226 224 230 230 230 231 232 248
283 287 278 291 291 294 293 290 294 292 297 290 287 282 279 278 277 277 274 263 251 246 244 231 234 229 227 226 229 229 226 226 223 218 220 226 226 219 221 221 223 224 223 228 228 228 230 235 242
277 292 296 296 292 293 290 293 295 301 301 291 283 285 283 281 273 277 276 272 254 246 245 238 233 230 228 225 226 227 227 224 222 222 220 222 222 221 221 221 221 220 225 226 228 233 232 239 247
304 302 306 298 285 290 294 295 310 302 297 291 287 285 287 285 283 280 281 278 272 243 244 243 235 233 228 227 224 227 227 224 222 223 222 221 221 221 224 224 223 217 220 226 228 233 237 243 249
291 293 288 309 297 295 292 297 310 312 306 297 294 292 290 289 287 285 282 278 273 264 242 244 240 236 235 225 224 225 226 225 224 221 222 222 220 221 221 223 226 223 219 223 229 234 239 243 248
229 288 305 307 302 290 293 301 313 311 316 307 303 300 296 292 289 286 284 277 271 267 257 241 241 240 239 226 222 226 225 224 224 223 224 223 218 219 220 220 221 227 223 223 227 230 234 237 244
295 297 299 298 296 293 291 294 308 316 312 312 311 307 304 297 289 277 277 281 273 261 257 245 235 238 235 236 222 223 225 223 223 223 226 226 222 219 221 221 217 223 222 225 228 229 237 239 245
291 293 293 298 300 288 298 299 305 313 306 311 323 309 305 301 294 284 266 257 262 270 260 251 225 228 228 234 226 221 224 222 220 223 228 225 226 222 222 223 221 222 225 225 228 229 237 247 253
288 293 294 300 299 299 302 298 304 278 302 332 332 321 313 312 300 290 272 264 239 247 244 238 231 228 221 226 229 223 224 224 221 224 228 229 226 225 223 224 224 226 228 228 229 237 241 247 252
285 289 295 297 304 301 293 302 167 270 281 308 332 324 318 316 310 302 286 281 258 247 252 238 228 229 217 205 238 223 223 222 223 222 226 228 229 225 224 223 224 227 232 233 232 237 242 249 254
283 292 289 298 305 299 297 283 289 278 296 324 326 322 323 322 314 306 297 289 263 245 248 256 249 242 217 203 211 231 218 220 222 220 224 230 231 220 222 225 225 227 232 236 238 243 247 251 257
275 285 290 291 291 294 286 256 309 322 314 327 329 328 326 324 321 307 295 291 280 251 252 254 249 243 217 205 208 225 216 220 222 219 222 229 228 216 220 221 226 229 234 237 239 243 248 253 260
280 296 300 281 276 277 283 255 329 341 327 328 332 331 330 330 327 313 304 294 285 268 253 248 241 242 217 203 209 222 213 217 218 218 220 224 224 213 216 219 226 229 232 237 241 243 245 253 261
280 299 302 285 247 264 281 321 8 355 331 334 334 336 335 334 326 317 310 292 274 264 252 244 234 227 216 204 207 212 212 213 215 217 216 216 215 212 221 223 227 235 238 241 242 245 245 252 258
277 281 287 301 299 303 304 299 108 358 333 337 340 337 338 339 336 329 308 288 249 238 218 212 207 204 216 207 208 214 216 211 212 215 197 198 211 213 220 227 236 246 245 248 247 246 246 248 255
208 269 286 282 282 273 261 201 302 325 334 344 343 343 344 346 354 340 308 258 266 258 180 164 180 177 203 209 209 216 218 220 223 213 222 190 214 216 221 224 228 235 244 248 249 246 246 242 255
240 285 292 260 283 297 311 124 326 337 344 346 347 348 348 351 2 357 349 67 64 84 79 113 139 186 185 206 213 215 220 224 231 217 192 203 213 225 226 234 235 242 248 250 249 249 258 263 264
228 273 262 268 264 279 286 108 331 339 343 347 351 351 350 356 5 3 17 55 62 72 103 106 128 160 193 220 199 208 206 208 224 219 218 211 217 226 242 244 246 249 249 251 247 251 254 258 257
246 288 297 283 281 308 318 99 325 340 348 348 357 357 359 4 7 5 18 54 82 78 87 134 131 166 175 194 197 195 218 233 204 212 209 222 228 230 238 248 253 245 243 245 247 247 250 256 264
Height
3142 3143 3144 3146 3153 3147 3141 3139 3139 3142 3143 3141 3139 3141 3143 3143 3144 3146 3142 3137 3135 3134 3133 3136 3138 3140 3141 3143 3142 3142 3141 3140 3139 3139 3140 3140 3141 3142 3143 3143 3144 3144 3144 3145 3146 3147 3148 3149 3149
3140 3141 3143 3146 3148 3141 3136 3135 3138 3141 3140 3138 3138 3139 3141 3143 3141 3140 3137 3133 3133 3131 3131 3133 3137 3139 3140 3140 3141 3140 3139 3139 3138 3138 3139 3139 3140 3141 3142 3143 3143 3144 3144 3145 3145 3146 3147 3148 3148
3138 3139 3143 3145 3141 3138 3136 3135 3137 3138 3137 3137 3138 3138 3140 3140 3137 3135 3130 3131 3130 3130 3130 3132 3135 3137 3139 3139 3139 3139 3138 3137 3137 3137 3138 3138 3139 3140 3141 3142 3143 3143 3143 3144 3144 3145 3146 3147 3148
3136 3138 3139 3139 3136 3136 3138 3137 3137 3137 3138 3136 3137 3138 3139 3136 3133 3129 3128 3129 3129 3128 3129 3131 3133 3136 3137 3137 3138 3138 3137 3136 3136 3135 3136 3137 3138 3138 3140 3141 3142 3142 3143 3144 3144 3146 3146 3146 3147
3134 3137 3137 3134 3133 3134 3134 3135 3135 3135 3135 3135 3135 3134 3135 3135 3127 3128 3128 3127 3127 3127 3127 3129 3131 3133 3134 3135 3136 3137 3136 3135 3134 3134 3134 3135 3136 3137 3138 3140 3141 3142 3143 3144 3144 3144 3145 3146 3146
3135 3136 3134 3130 3128 3130 3130 3132 3131 3132 3132 3132 3131 3131 3133 3134 3122 3124 3125 3125 3125 3126 3125 3127 3128 3130 3132 3133 3134 3135 3135 3134 3133 3133 3133 3134 3134 3136 3137 3138 3139 3141 3142 3143 3144 3145 3145 3145 3146
3131 3133 3130 3129 3128 3128 3129 3129 3128 3127 3127 3128 3125 3125 3128 3131 3114 3120 3121 3122 3123 3123 3123 3124 3126 3127 3129 3130 3131 3132 3133 3132 3131 3131 3132 3131 3132 3134 3135 3136 3138 3140 3141 3142 3143 3144 3144 3145 3145
3128 3130 3127 3126 3125 3125 3126 3124 3124 3124 3122 3120 3121 3122 3123 3118 3108 3116 3118 3119 3120 3120 3121 3121 3122 3125 3126 3127 3128 3129 3130 3130 3129 3130 3130 3129 3130 3132 3133 3134 3136 3138 3139 3141 3141 3142 3143 3144 3144
3124 3125 3124 3123 3122 3120 3120 3119 3120 3117 3114 3115 3117 3117 3116 3111 3108 3111 3113 3114 3115 3115 3116 3118 3119 3120 3123 3124 3125 3126 3127 3127 3127 3127 3128 3128 3128 3129 3131 3132 3134 3136 3137 3139 3139 3140 3142 3142 3143
3120 3121 3121 3122 3118 3116 3115 3113 3113 3111 3111 3111 3111 3113 3111 3103 3104 3105 3108 3108 3109 3111 3110 3112 3114 3115 3118 3121 3122 3122 3123 3124 3124 3124 3125 3126 3126 3127 3129 3130 3132 3133 3135 3136 3137 3139 3139 3140 3141
3116 3116 3117 3115 3114 3110 3108 3107 3107 3105 3101 3105 3103 3101 3098 3097 3095 3099 3101 3102 3103 3105 3104 3104 3107 3110 3114 3116 3118 3119 3120 3120 3120 3121 3122 3123 3123 3125 3126 3128 3129 3131 3132 3134 3135 3137 3138 3139 3139
3110 3111 3110 3109 3105 3102 3101 3099 3097 3098 3094 3094 3093 3092 3089 3089 3089 3089 3092 3094 3096 3097 3097 3098 3100 3103 3108 3111 3114 3116 3117 3117 3117 3117 3119 3119 3120 3121 3123 3124 3126 3128 3129 3131 3133 3135 3136 3137 3137
3106 3106 3104 3101 3098 3097 3095 3092 3090 3088 3087 3085 3083 3082 3082 3082 3081 3082 3082 3084 3088 3090 3090 3091 3092 3095 3100 3104 3108 3111 3112 3114 3113 3113 3115 3117 3117 3119 3120 3121 3123 3125 3127 3128 3130 3132 3133 3135 3136
3102 3099 3097 3094 3093 3093 3091 3090 3088 3086 3083 3081 3079 3076 3074 3072 3072 3071 3071 3071 3077 3080 3082 3083 3085 3086 3091 3095 3099 3104 3107 3109 3110 3111 3111 3113 3114 3115 3117 3118 3120 3122 3124 3125 3127 3129 3131 3132 3133
3096 3093 3094 3092 3093 3089 3087 3084 3086 3083 3079 3076 3074 3071 3068 3065 3065 3064 3063 3061 3061 3069 3071 3074 3077 3077 3080 3086 3091 3094 3099 3103 3105 3107 3108 3109 3111 3112 3113 3115 3117 3119 3120 3122 3124 3126 3128 3129 3131
3093 3093 3092 3091 3089 3087 3084 3075 3081 3077 3072 3068 3066 3064 3062 3060 3058 3056 3055 3053 3053 3054 3059 3063 3067 3069 3069 3075 3082 3086 3089 3095 3099 3101 3104 3105 3107 3109 3110 3111 3113 3116 3117 3119 3121 3123 3125 3126 3127
3090 3089 3088 3088 3085 3083 3080 3068 3074 3071 3066 3061 3059 3058 3056 3053 3052 3051 3046 3045 3045 3045 3046 3049 3054 3059 3060 3064 3071 3077 3081 3086 3092 3095 3097 3100 3101 3104 3106 3107 3110 3112 3114 3116 3117 3120 3122 3123 3124
3088 3085 3084 3083 3082 3078 3074 3068 3064 3065 3061 3057 3053 3049 3045 3042 3040 3036 3035 3035 3034 3034 3034 3034 3040 3046 3053 3053 3059 3066 3071 3076 3083 3087 3090 3094 3097 3100 3102 3103 3106 3108 3111 3113 3114 3116 3118 3120 3121
3086 3083 3080 3078 3077 3071 3070 3064 3060 3057 3054 3051 3045 3039 3034 3030 3026 3023 3020 3020 3022 3022 3021 3023 3025 3031 3037 3041 3047 3054 3058 3067 3074 3079 3082 3087 3091 3095 3097 3099 3101 3104 3106 3109 3112 3113 3115 3117 3118
3082 3080 3076 3073 3071 3068 3062 3058 3055 3054 3050 3045 3038 3031 3024 3017 3012 3009 3006 3004 3008 3004 3004 3006 3008 3010 3021 3031 3038 3045 3051 3060 3068 3072 3074 3079 3084 3088 3090 3093 3097 3100 3102 3104 3107 3110 3112 3113 3114
3078 3077 3073 3069 3064 3061 3057 3052 3048 3048 3046 3038 3032 3023 3017 3007 2996 2993 2990 2988 2989 2991 2988 2989 2991 2993 3007 3018 3030 3033 3040 3051 3056 3061 3064 3070 3075 3080 3084 3086 3090 3094 3098 3100 3103 3105 3107 3109 3110
3073 3072 3070 3066 3063 3056 3056 3047 3044 3041 3038 3032 3025 3017 3008 3000 2991 2983 2979 2977 2973 2975 2977 2978 2983 2988 2999 2999 3009 3020 3027 3036 3042 3051 3060 3063 3065 3071 3076 3081 3084 3087 3091 3095 3098 3099 3102 3103 3105
3070 3067 3065 3062 3058 3053 3045 3040 3034 3035 3029 3024 3018 3009 3000 2991 2982 2976 2972 2969 2965 2964 2965 2966 2970 2975 2984 2992 3000 3007 3018 3027 3036 3046 3051 3054 3058 3063 3069 3073 3078 3081 3084 3088 3092 3094 3095 3098 3099
3065 3063 3060 3055 3052 3045 3033 3034 3030 3029 3025 3019 3013 3004 2993 2983 2975 2969 2965 2961 2958 2955 2954 2955 2959 2963 2972 2981 2992 2998 3010 3019 3027 3035 3041 3047 3053 3056 3062 3066 3072 3076 3078 3082 3086 3088 3090 3092 3093
3063 3062 3055 3047 3046 3036 3029 3027 3031 3030 3024 3017 3008 2999 2989 2980 2971 2963 2959 2956 2951 2947 2945 2946 2949 2955 2965 2972 2981 2988 2999 3011 3019 3024 3031 3039 3049 3050 3058 3061 3063 3069 3071 3074 3078 3081 3084 3085 3087
3059 3061 3058 3051 3040 3035 3034 3027 3031 3029 3023 3016 3008 2998 2989 2980 2970 2961 2955 2952 2945 2939 2937 2939 2943 2950 2960 2967 2973 2982 2992 2999 3005 3010 2986 3014 3039 3042 3052 3055 3056 3061 3063 3066 3071 3074 3076 3078 3079
3057 3057 3055 3052 3045 3037 3029 3031 3030 3027 3021 3014 3007 2998 2989 2980 2971 2962 2954 2948 2943 2936 2926 2935 2941 2949 2957 2966 2972 2978 2987 2992 2993 2976 3008 3013 3029 3036 3046 3047 3050 3053 3056 3058 3063 3066 3067 3067 3071
3054 3055 3053 3050 3042 3028 3020 3027 3028 3022 3016 3011 3005 2998 2991 2982 2974 2965 2956 2948 2946 2930 2932 2935 2941 2949 2958 2968 2973 2979 2984 2989 2987 2982 3002 3013 3026 3034 3037 3040 3045 3047 3048 3050 3052 3057 3056 3058 3059
3050 3050 3049 3047 3042 3033 3023 3028 3026 3022 3017 3010 3005 2998 2992 2985 2977 2970 2959 2952 2949 2945 2933 2941 2945 2952 2959 2967 2971 2978 2981 2986 2981 2990 2994 3011 3023 3029 3030 3033 3036 3038 3039 3040 3042 3048 3051 3050 3052
3047 3047 3048 3046 3036 3032 3026 3027 3025 3022 3018 3013 3007 3001 2995 2988 2981 2975 2969 2956 2953 2950 2946 2947 2949 2955 2961 2967 2967 2971 2980 2980 2970 2995 2996 3010 3016 3021 3023 3024 3025 3028 3028 3028 3035 3040 3042 3044 3043